Location: Barrialote
(9.9333°N, 67.3500°W)
Time: 19:39:03
(UTC+00:00)

CZ-4B R/B - Pass Details

Date: 18 April 2024
Orbit: 701 x 800 km, 99.0° (Epoch: 25 May)

Event Time Altitude Azimuth Distance (km) Brightness Sun altitude
Rises 23:21:37 0° 164° (SSE) 3,233 6.4 -10.8°
Reaches altitude 10° 23:23:57 10° 163° (SSE) 2,292 5.7 -11.4°
Maximum altitude 23:28:59 78° 77° (ENE) 766 3.4 -12.6°
Drops below altitude 10° 23:33:52 10° 351° (N) 2,226 6.2 -13.8°
Sets 23:36:07 0° 350° (N) 3,133 7.0 -14.3°
